Flag for U.S.A. Weather past 2 weeks in Waterbury, Connecticut, U.S.A.

Now
28 °F

Clear.


Feels Like: 22 °F
Forecast: 29 / 53 °F
Wind: 6 mph from Northeast

Location: Oxford


UV Index: 0 (Low)

Visibility: 10 mi


Pressure: 30.56 "Hg

Humidity: 69%

Dew point: 19 °F

Location of WaterburyLocation

Historic Weather in Waterbury

°F

Waterbury temperature yesterday

Maximum temperature yesterday: 46 °F (at 2:55 PM)
Minimum temperature yesterday: 27 °F (at 1:35 AM)
Average temperature yesterday: 34 °F

Past Weeks' High & Low Weather Summary

 TemperatureHumidityPressure
High70 °F (Apr 13, 2:45 PM)93% (Apr 8, 2:55 AM)30.74 "Hg (Apr 8, 2:55 AM)
Low27 °F (Apr 16, 5:55 AM)19% (Apr 10, 8:52 AM)29.38 "Hg (Apr 8, 2:45 PM)
Average45 °F60%30.05 "Hg
* Reported Apr 3 3:15 AM — Apr 18 3:35 AM, Waterbury, Weather by CustomWeather, © 2014

Note: Actual official high and low records may vary slightly from our data, if they occured in-between our weather recording intervals... More about our weather records

Advertising

Historic Weather Conditions — Data for Previous 24 hours

 ConditionsComfort  
Time TempWeatherWind HumidityBarometerVisibility
3:35 AM
Apr 18
28 °FClear.6 mph69%30.59 "Hg10 mi
3:15 AM30 °FClear.7 mph64%30.60 "Hg10 mi
2:55 AM30 °FClear.5 mph64%30.60 "Hg10 mi
2:35 AM30 °FClear.5 mph64%30.61 "Hg10 mi
2:15 AM30 °FClear.6 mph69%30.60 "Hg10 mi
1:55 AM30 °FClear.6 mph69%30.60 "Hg10 mi
1:35 AM30 °FClear.5 mph69%30.60 "Hg10 mi
1:15 AM30 °FClear.6 mph69%30.61 "Hg10 mi
12:55 AM32 °FClear.5 mph64%30.61 "Hg10 mi
12:35 AM32 °FClear.5 mph64%30.61 "Hg10 mi
12:15 AM34 °FClear.5 mph65%30.61 "Hg10 mi
11:55 PM
Apr 17
34 °FClear.5 mph65%30.61 "Hg10 mi
11:35 PM34 °FClear.7 mph70%30.61 "Hg10 mi
11:15 PM34 °FClear.6 mph70%30.62 "Hg10 mi
10:55 PM34 °FClear.3 mph70%30.63 "Hg10 mi
10:35 PM34 °FClear.3 mph75%30.64 "Hg10 mi
10:15 PM34 °FClear.3 mph75%30.65 "Hg10 mi
9:55 PM36 °FClear.3 mph70%30.66 "Hg10 mi
9:35 PM36 °FClear.5 mph70%30.66 "Hg10 mi
9:15 PM36 °FClear.5 mph70%30.67 "Hg10 mi
6:55 PM39 °FSunny.9 mph56%30.66 "Hg10 mi
5:52 PM43 °FSunny.14 mph53%30.67 "Hg10 mi
4:55 PM45 °FSunny.12 mph49%30.66 "Hg10 mi
3:55 PM46 °FScattered clouds.12 mph46%30.67 "Hg10 mi
2:55 PM46 °FPassing clouds.6 mph43%30.69 "Hg10 mi
1:55 PM45 °FPassing clouds.14 mph42%30.71 "Hg10 mi
11:55 AM41 °FPassing clouds.12 mph45%30.73 "Hg10 mi
10:45 AM36 °FPassing clouds.N/A52%30.74 "Hg10 mi
9:45 AM34 °FPassing clouds.N/A51%30.74 "Hg10 mi
7:45 AM30 °FPassing clouds.9 mph51%30.71 "Hg10 mi
6:45 AM28 °FPassing clouds.9 mph55%30.69 "Hg10 mi
5:45 AM28 °FPassing clouds.12 mph59%30.67 "Hg10 mi
5:35 AM28 °FClear.10 mph59%30.66 "Hg10 mi
4:55 AM28 °FClear.6 mph59%30.66 "Hg10 mi
4:35 AM28 °FClear.7 mph59%30.66 "Hg10 mi
Weather by CustomWeather, © 2014

See weather overview